Lubbock, TX

9:31 AM CDT on September 18, 2019 (GMT -0500)
Lubbock International

Weather History for KLBB - August, 2019

Change the Weather History Date:

Sunday, August 18, 2019

  Actual Average Record
Temperature  
Mean Temperature 90 °F 79 °F  
Max Temperature 105 °F 91 °F 105 °F (2019)
Min Temperature 75 °F 67 °F 55 °F (1943)
Degree Days  
Heating Degree Days 0 0  
Month to date heating degree days 0 0  
Since 1 June heating degree days 0 2  
Since 1 July heating degree days 0 0  
Cooling Degree Days 25 14  
Month to date cooling degree days 381 265  
Year to date cooling degree days 1488 1358  
Since 1 June cooling degree days 1278 1112  
Growing Degree Days 36 (Base 50)    
Moisture  
Dew Point 58 °F    
Average Humidity 39    
Maximum Humidity 60    
Minimum Humidity 18    
Precipitation  
Precipitation T in 0.06 in 0.94 in (1963)
Month to date precipitation 0.13 1.09  
Year to date precipitation 13.58 12.25  
Snow  
Snow 0.00 in 0.00 in 0.00 in (2002)
Month to date snowfall 0.0 0.0  
Since 1 June snowfall 0.0 0.0  
Since 1 July snowfall 0.0 0.0  
Snow Depth 0.00 in    
Sea Level Pressure  
Sea Level Pressure 29.72 in    
Wind  
Wind Speed 13 mph (South)    
Max Wind Speed 23 mph    
Max Gust Speed 27 mph    
Visibility 10 miles    
Events      
T = Trace of Precipitation, MM = Missing Value Source: NWS Daily Summary

Daily Weather History Graph

Daily Weather History Graph

Search for Another Location

Airport or City:

Astronomy

Aug. 18, 2019 Rise Set
Actual Time 7:11 AM CDT 8:30 PM CDT
Civil Twilight 6:45 AM CDT 8:56 PM CDT
Nautical Twilight 6:14 AM CDT 9:27 PM CDT
Astronomical Twilight 5:41 AM CDT 9:59 PM CDT
Moon 10:33 PM CDT 9:52 AM CDT
Length of Visible Light 14h 11m
Length of Day
13h 18m
Waning Gibbous, 91% of the Moon is Illuminated
Aug 18
Waning Gibbous
Aug 23
Last Quarter
Aug 30
New
Sep 5
First Quarter
Sep 13
Full

Hourly Weather History & Observations

Time (CDT) Temp. Heat Index Dew Point Humidity Pressure Visibility Wind Dir Wind Speed Gust Speed Precip Events Conditions
12:53 AM 79.0 °F - 59.0 °F 50% 29.70 in 10.0 mi SE 10.4 mph - N/A   Partly Cloudy
1:53 AM 78.1 °F - 61.0 °F 56% 29.70 in 10.0 mi SE 13.8 mph - N/A   Partly Cloudy
2:53 AM 75.9 °F - 61.0 °F 60% 29.70 in 10.0 mi SE 11.5 mph - N/A   Scattered Clouds
3:53 AM 75.0 °F - 61.0 °F 62% 29.70 in 10.0 mi SSE 9.2 mph - N/A   Scattered Clouds
4:53 AM 75.9 °F - 60.1 °F 58% 29.70 in 10.0 mi South 10.4 mph - N/A   Scattered Clouds
5:53 AM 79.0 °F - 59.0 °F 50% 29.70 in 10.0 mi South 10.4 mph - N/A   Scattered Clouds
6:53 AM 79.0 °F - 59.0 °F 50% 29.70 in 10.0 mi SSW 13.8 mph - N/A   Scattered Clouds
7:53 AM 78.1 °F - 59.0 °F 52% 29.73 in 10.0 mi SSW 11.5 mph - N/A   Partly Cloudy
8:53 AM 82.0 °F 82.0 °F 57.9 °F 44% 29.74 in 10.0 mi SSW 18.4 mph 24.2 mph N/A   Scattered Clouds
9:53 AM 84.9 °F 84.8 °F 60.1 °F 43% 29.75 in 10.0 mi SSW 15.0 mph - N/A   Scattered Clouds
10:53 AM 89.1 °F 89.0 °F 61.0 °F 39% 29.75 in 10.0 mi SW 20.7 mph - N/A   Partly Cloudy
11:53 AM 93.0 °F 93.0 °F 61.0 °F 34% 29.76 in 10.0 mi SW 16.1 mph - N/A   Scattered Clouds
12:53 PM 96.1 °F 96.0 °F 60.1 °F 30% 29.75 in 10.0 mi SSW 12.7 mph - N/A   Scattered Clouds
1:53 PM 100.0 °F 100.7 °F 60.1 °F 27% 29.74 in 10.0 mi SW 15.0 mph - N/A   Partly Cloudy
2:53 PM 100.9 °F 100.5 °F 57.9 °F 24% 29.73 in 10.0 mi SSW 11.5 mph 20.7 mph N/A   Scattered Clouds
3:53 PM 102.0 °F 101.6 °F 57.9 °F 23% 29.71 in 10.0 mi Variable 4.6 mph 16.1 mph N/A   Mostly Cloudy
4:53 PM 105.1 °F 103.8 °F 55.0 °F 19% 29.68 in 10.0 mi SSW 12.7 mph - N/A   Mostly Cloudy
5:53 PM 104.0 °F 101.8 °F 53.1 °F 18% 29.67 in 10.0 mi SW 12.7 mph 18.4 mph N/A   Mostly Cloudy
6:53 PM 102.9 °F - 50.0 °F 17% 29.67 in 10.0 mi SSW 10.4 mph - N/A   Mostly Cloudy
7:53 PM 99.0 °F - 52.0 °F 21% 29.68 in 10.0 mi South 13.8 mph - N/A   Mostly Cloudy
8:53 PM 91.9 °F 90.0 °F 55.0 °F 29% 29.71 in 10.0 mi SE 11.5 mph - N/A   Mostly Cloudy
9:53 PM 90.0 °F 87.7 °F 54.0 °F 29% 29.73 in 10.0 mi SE 12.7 mph - 0.00 in   Mostly Cloudy
10:53 PM 88.0 °F 86.5 °F 55.9 °F 34% 29.76 in 10.0 mi SE 11.5 mph - N/A   Mostly Cloudy
11:53 PM 84.9 °F 84.2 °F 57.9 °F 40% 29.78 in 10.0 mi SE 11.5 mph - N/A   Scattered Clouds